Weather History for KMSP - January, 2014

Change the Weather History Date:

Wednesday, January 15, 2014

  Actual Average Record
Temperature  
Mean Temperature 12 °F 15 °F  
Max Temperature 25 °F 23 °F 43 °F (1990)
Min Temperature -1 °F 7 °F -37 °F (1888)
Degree Days  
Heating Degree Days 53 50  
Month to date heating degree days 841 744  
Since 1 July heating degree days 3964 3767  
Cooling Degree Days 0 0  
Month to date cooling degree days 0 0  
Year to date cooling degree days 0 0  
Moisture  
Dew Point 7 °F    
Average Humidity 78    
Maximum Humidity 88    
Minimum Humidity 67    
Precipitation  
Precipitation 0.03 in 0.03 in 0.45 in (1969)
Month to date precipitation 0.44 0.46  
Year to date precipitation 0.44 0.46  
Snow  
Snow 0.50 in 0.40 in 3.20 in (1953)
Month to date snowfall 5.2 6.0  
Since 1 July snowfall 22.2 27.8  
Snow Depth 10.00 in    
Sea Level Pressure  
Sea Level Pressure 29.86 in    
Wind  
Wind Speed 10 mph (SSW)    
Max Wind Speed 18 mph    
Max Gust Speed 26 mph    
Visibility 7 miles    
Events Snow    
T = Trace of Precipitation, MM = Missing Value Source: NWS Daily Summary

Daily Weather History Graph

Daily Weather History Graph

Search for Another Location

Airport or City:

Trip Planner

Search our weather history database for the weather conditions in past years. The results will help you decide how hot, cold, wet, or windy it might be!

Date:

Astronomy

Jan. 15, 2014 Rise Set
Actual Time 7:47 AM CST 4:58 PM CST
Civil Twilight 7:14 AM CST 5:30 PM CST
Nautical Twilight 6:38 AM CST 6:06 PM CST
Astronomical Twilight 6:03 AM CST 6:42 PM CST
Moon 4:58 PM CST (1/15) 7:01 AM CST (1/15)
Length of Visible Light 10h 16m
Length of Day
9h 10m
Full, 100% of the Moon is Illuminated
Jan 15
Full
Jan 15
Full
Jan 23
Last Quarter
Jan 30
New
Feb 6
First Quarter

Hourly Weather History & Observations

Time (CST) Temp. Windchill Dew Point Humidity Pressure Visibility Wind Dir Wind Speed Gust Speed Precip Events Conditions
12:53 AM 6.1 °F -10.2 °F -0.0 °F 76% 30.19 in 10.0 mi NW 12.7 mph - N/A   Partly Cloudy
1:53 AM 5.0 °F -9.1 °F -0.0 °F 80% 30.18 in 10.0 mi NW 9.2 mph - N/A   Clear
2:53 AM 3.9 °F -11.3 °F -0.9 °F 80% 30.19 in 10.0 mi NW 10.4 mph - N/A   Clear
3:53 AM 1.9 °F -7.6 °F -2.9 °F 80% 30.19 in 10.0 mi WNW 4.6 mph - N/A   Clear
4:53 AM 1.0 °F -10.3 °F -4.0 °F 79% 30.20 in 10.0 mi WNW 5.8 mph - N/A   Clear
5:53 AM -0.0 °F -9.9 °F -4.0 °F 83% 30.20 in 10.0 mi WNW 4.6 mph - N/A   Clear
6:53 AM 1.9 °F -5.6 °F -2.9 °F 80% 30.19 in 10.0 mi SW 3.5 mph - N/A   Partly Cloudy
7:08 AM 1.4 °F -6.2 °F -2.2 °F 85% 30.13 in 10.0 mi WSW 3.5 mph - N/A   Mostly Cloudy
7:53 AM 1.9 °F -7.6 °F -2.0 °F 83% 30.19 in 10.0 mi WSW 4.6 mph - N/A   Overcast
8:53 AM 5.0 °F - -0.0 °F 80% 30.17 in 9.0 mi Calm Calm - 0.00 in Snow Light Snow
9:53 AM 6.1 °F -4.3 °F 1.0 °F 80% 30.14 in 8.0 mi South 5.8 mph - 0.00 in Snow Light Snow
10:53 AM 7.0 °F -6.6 °F 1.0 °F 77% 30.12 in 9.0 mi SW 9.2 mph - 0.00 in Snow Light Snow
11:33 AM 8.6 °F -5.5 °F 1.4 °F 73% 30.01 in 10.0 mi SSW 10.4 mph 16.1 mph 0.00 in   Mostly Cloudy
11:53 AM 9.0 °F -5.1 °F 1.9 °F 73% 30.06 in 10.0 mi SSW 10.4 mph - 0.00 in   Mostly Cloudy
12:00 PM 8.6 °F -4.7 °F 1.4 °F 73% 29.99 in 10.0 mi SSW 9.2 mph 17.3 mph N/A   Mostly Cloudy
12:53 PM 10.9 °F -2.6 °F 3.0 °F 70% 29.99 in 10.0 mi SSW 10.4 mph - N/A   Mostly Cloudy
1:53 PM 12.9 °F -1.6 °F 3.9 °F 67% 29.95 in 10.0 mi SSW 12.7 mph - N/A   Overcast
2:53 PM 14.0 °F 1.2 °F 5.0 °F 67% 29.91 in 10.0 mi South 10.4 mph - N/A   Overcast
3:53 PM 14.0 °F -2.0 °F 5.0 °F 67% 29.85 in 10.0 mi South 16.1 mph - N/A   Overcast
4:36 PM 15.8 °F 0.9 °F 6.8 °F 68% 29.75 in 6.0 mi SSE 15.0 mph 20.7 mph 0.00 in Snow Light Snow
4:41 PM 15.8 °F 0.3 °F 8.6 °F 73% 29.74 in 2.0 mi South 16.1 mph 23.0 mph 0.00 in Snow Light Snow
4:47 PM 15.8 °F -0.6 °F 8.6 °F 73% 29.73 in 1.2 mi South 18.4 mph - 0.00 in Snow Light Snow
4:53 PM 15.1 °F -0.6 °F 9.0 °F 77% 29.77 in 1.0 mi SSE 16.1 mph - 0.00 in Snow Light Snow
5:00 PM 15.8 °F 1.4 °F 10.4 °F 79% 29.72 in 1.5 mi SSE 13.8 mph - 0.00 in Snow Light Snow
5:07 PM 15.8 °F 1.4 °F 10.4 °F 79% 29.72 in 2.5 mi South 13.8 mph - 0.00 in Snow Light Snow
5:13 PM 15.8 °F 1.4 °F 10.4 °F 79% 29.71 in 3.0 mi SSE 13.8 mph - 0.00 in Snow Light Snow
5:24 PM 15.8 °F 1.4 °F 10.4 °F 79% 29.72 in 2.0 mi South 13.8 mph 20.7 mph 0.00 in Snow Light Snow
5:29 PM 15.8 °F 1.4 °F 10.4 °F 79% 29.71 in 1.5 mi SSE 13.8 mph 20.7 mph 0.00 in Snow Light Snow
5:42 PM 15.8 °F 0.9 °F 12.2 °F 86% 29.67 in 2.5 mi SSE 15.0 mph - 0.01 in Snow Light Snow
5:53 PM 16.0 °F 1.7 °F 12.0 °F 84% 29.70 in 2.5 mi SSE 13.8 mph - 0.01 in Snow Light Snow
6:00 PM 15.8 °F 2.1 °F 12.2 °F 86% 29.65 in 1.5 mi SSE 12.7 mph - 0.01 in Snow Light Snow
6:16 PM 15.8 °F 2.1 °F 12.2 °F 86% 29.65 in 2.5 mi South 12.7 mph - 0.01 in Snow Light Snow
6:20 PM 17.6 °F 5.7 °F 12.2 °F 79% 29.65 in 3.0 mi South 10.4 mph - 0.01 in Snow Light Snow
6:53 PM 18.0 °F 3.6 °F 15.1 °F 88% 29.64 in 7.0 mi South 15.0 mph 21.9 mph 0.02 in   Overcast
7:53 PM 21.0 °F 8.6 °F 16.0 °F 81% 29.61 in 10.0 mi SSW 12.7 mph - N/A   Mostly Cloudy
8:16 PM 21.2 °F 7.8 °F 17.6 °F 86% 29.54 in 10.0 mi SSW 15.0 mph 21.9 mph N/A   Overcast
8:53 PM 21.9 °F 7.8 °F 16.0 °F 78% 29.56 in 10.0 mi SSW 17.3 mph 24.2 mph N/A   Overcast
9:53 PM 24.1 °F 13.1 °F 16.0 °F 71% 29.51 in 10.0 mi SSW 11.5 mph 20.7 mph N/A   Scattered Clouds
10:53 PM 23.0 °F 13.9 °F 16.0 °F 74% 29.47 in 10.0 mi South 8.1 mph - N/A   Scattered Clouds
11:53 PM 24.1 °F 15.2 °F 18.0 °F 77% 29.44 in 10.0 mi SW 8.1 mph - N/A   Scattered Clouds